Terminal Aerodrome Forecast
Issued by NWS Wakefield, VA

Home | Current Version | Previous Version | Text Only | Print | Product List | Glossary On
Versions: 1 2 3 4 5 6 7 8 9 10 11 12 13 14 15 16 17 18 19
000
FTUS41 KAKQ 042053 AAA
TAFECG
TAF AMD
KECG 042053Z 0421/0518 23011KT P6SM SCT100
      TEMPO 0421/0422 4SM SHRA SCT040 BKN100
     FM050000 25008KT 5SM -RA BKN050 OVC100
     FM050400 23006KT P6SM BKN030
     FM051300 24004KT P6SM SCT040 BKN120=

USA.gov is the U.S. government's official web portal to all federal, state and local government web resources and services.